Weather History for KWLD - May, 2013

Change the Weather History Date:

Monday, May 6, 2013

  Actual Average Record
Temperature  
Mean Temperature 52 °F -  
Max Temperature 66 °F 74 °F 95 °F (2014)
Min Temperature 39 °F 51 °F 39 °F (2013)
Degree Days  
Heating Degree Days 12    
Growing Degree Days 2 (Base 50)    
Moisture  
Dew Point 47 °F    
Average Humidity 90    
Maximum Humidity 100    
Minimum Humidity 59    
Precipitation  
Precipitation 0.00 in - - ()
Sea Level Pressure  
Sea Level Pressure 30.12 in    
Wind  
Wind Speed 5 mph (North)    
Max Wind Speed 13 mph    
Max Gust Speed -    
Visibility 5 miles    
Events Fog    
Averages and records for this station are not official NWS values.
T = Trace of Precipitation, MM = Missing Value Source: NWS Daily Summary

Daily Weather History Graph

Daily Weather History Graph

Search for Another Location

Airport or City:

Trip Planner

Search our weather history database for the weather conditions in past years. The results will help you decide how hot, cold, wet, or windy it might be!

Date:

Astronomy

May. 06, 2013 Rise Set
Actual Time 6:27 AM CDT 8:22 PM CDT
Civil Twilight 5:59 AM CDT 8:50 PM CDT
Nautical Twilight 5:25 AM CDT 9:25 PM CDT
Astronomical Twilight 4:48 AM CDT 10:02 PM CDT
Moon 4:26 AM CDT (5/6) 5:27 PM CDT (5/6)
Length of Visible Light 14h 51m
Length of Day
13h 54m
Waning Crescent, 11% of the Moon is Illuminated
May 6
Waning Crescent
May 9
New
May 17
First Quarter
May 24
Full
May 31
Last Quarter

Hourly Weather History & Observations

Time (CDT) Temp. Windchill Dew Point Humidity Pressure Visibility Wind Dir Wind Speed Gust Speed Precip Events Conditions
12:25 AM 42.8 °F 40.1 °F 41.0 °F 93% 30.11 in 1.8 mi WNW 4.6 mph - N/A   Clear
12:34 AM 42.8 °F 40.1 °F 42.8 °F 100% 30.11 in 3.0 mi WNW 4.6 mph - N/A   Clear
12:54 AM 43.0 °F - 42.1 °F 97% 30.11 in 8.0 mi Calm Calm - N/A   Clear
1:39 AM 42.8 °F - 42.8 °F 100% 30.10 in 7.0 mi Calm Calm - N/A   Scattered Clouds
1:54 AM 43.0 °F - 43.0 °F 100% 30.11 in 8.0 mi Calm Calm - N/A   Partly Cloudy
2:51 AM 42.8 °F 40.1 °F 41.0 °F 93% 30.10 in 2.5 mi North 4.6 mph - N/A   Clear
2:54 AM 42.1 °F 39.2 °F 41.0 °F 96% 30.10 in 4.0 mi North 4.6 mph - N/A   Clear
3:54 AM 42.1 °F 39.2 °F 41.0 °F 96% 30.11 in 3.0 mi NW 4.6 mph - N/A   Clear
4:30 AM 42.8 °F - 42.8 °F 100% 30.11 in 1.8 mi Calm Calm - N/A   Clear
4:35 AM 41.0 °F - 41.0 °F 100% 30.11 in 0.5 mi Calm Calm - N/A Fog Fog
4:48 AM 39.2 °F - 39.2 °F 100% 30.11 in 1.0 mi Calm Calm - N/A   Mist
4:54 AM 42.1 °F - 41.0 °F 96% 30.11 in 1.0 mi Calm Calm - N/A   Mist
4:57 AM 42.8 °F - 42.8 °F 100% 30.11 in 0.5 mi Calm Calm - N/A Fog Fog
5:54 AM 39.9 °F 36.7 °F 39.0 °F 97% 30.11 in 0.5 mi NW 4.6 mph - N/A Fog Fog
6:32 AM 39.2 °F 35.0 °F 39.2 °F 100% 30.12 in 0.5 mi North 5.8 mph - N/A Fog Fog
6:42 AM 42.8 °F 40.1 °F 41.0 °F 93% 30.13 in 0.8 mi North 4.6 mph - N/A   Mostly Cloudy
6:46 AM 42.8 °F 40.1 °F 42.8 °F 100% 30.13 in 2.0 mi NNW 4.6 mph - N/A   Mostly Cloudy
6:54 AM 43.0 °F 40.3 °F 43.0 °F 100% 30.13 in 4.0 mi North 4.6 mph - N/A   Overcast
6:58 AM 44.6 °F 40.2 °F 44.6 °F 100% 30.13 in 2.5 mi North 8.1 mph - N/A   Overcast
7:02 AM 44.6 °F 39.7 °F 44.6 °F 100% 30.13 in 0.8 mi North 9.2 mph - N/A   Overcast
7:09 AM 44.6 °F 40.2 °F 44.6 °F 100% 30.13 in 0.2 mi North 8.1 mph - N/A Fog Fog
7:54 AM 46.9 °F - 46.9 °F 100% 30.14 in 0.5 mi North 12.7 mph - N/A Fog Fog
8:08 AM 48.2 °F - 48.2 °F 100% 30.14 in 0.8 mi North 10.4 mph - N/A   Overcast
8:17 AM 48.2 °F - 48.2 °F 100% 30.14 in 1.2 mi North 10.4 mph - N/A   Overcast
8:32 AM 48.2 °F - 48.2 °F 100% 30.15 in 2.5 mi North 10.4 mph - N/A   Overcast
8:51 AM 48.2 °F - 48.2 °F 100% 30.16 in 3.0 mi North 9.2 mph - N/A   Overcast
8:54 AM 48.9 °F - 48.0 °F 97% 30.16 in 3.0 mi North 12.7 mph - N/A   Overcast
9:35 AM 50.0 °F - 48.2 °F 94% 30.16 in 5.0 mi North 9.2 mph - N/A   Overcast
9:54 AM 51.1 °F - 48.9 °F 92% 30.17 in 6.0 mi North 11.5 mph - N/A   Overcast
10:08 AM 51.8 °F - 50.0 °F 94% 30.16 in 7.0 mi North 11.5 mph - N/A   Overcast
10:54 AM 54.0 °F - 50.0 °F 86% 30.16 in 8.0 mi North 12.7 mph - N/A   Overcast
11:11 AM 53.6 °F - 50.0 °F 88% 30.16 in 9.0 mi North 9.2 mph - N/A   Overcast
11:54 AM 57.0 °F - 50.0 °F 77% 30.16 in 9.0 mi North 8.1 mph - N/A   Overcast
12:39 PM 57.2 °F - 51.8 °F 82% 30.15 in 10.0 mi North 9.2 mph - N/A   Overcast
12:54 PM 57.9 °F - 51.1 °F 78% 30.15 in 9.0 mi North 9.2 mph - N/A   Overcast
1:54 PM 60.1 °F - 52.0 °F 75% 30.13 in 9.0 mi Variable 6.9 mph - N/A   Overcast
2:54 PM 63.0 °F - 53.1 °F 70% 30.11 in 10.0 mi North 5.8 mph - N/A   Scattered Clouds
3:54 PM 64.9 °F - 53.1 °F 65% 30.09 in 10.0 mi NNW 6.9 mph - N/A   Partly Cloudy
4:54 PM 66.0 °F - 54.0 °F 65% 30.06 in 10.0 mi North 6.9 mph - N/A   Clear
5:54 PM 66.9 °F - 53.1 °F 61% 30.05 in 10.0 mi North 4.6 mph - N/A   Clear
6:54 PM 66.9 °F - 52.0 °F 59% 30.04 in 10.0 mi North 4.6 mph - N/A   Clear
7:54 PM 63.0 °F - 52.0 °F 67% 30.05 in 10.0 mi WNW 3.5 mph - N/A   Clear
8:54 PM 57.0 °F - 52.0 °F 83% 30.07 in 10.0 mi Calm Calm - N/A   Clear
9:54 PM 55.0 °F - 51.1 °F 86% 30.08 in 10.0 mi Calm Calm - N/A   Clear
10:54 PM 55.0 °F - 50.0 °F 83% 30.08 in 10.0 mi East 6.9 mph - N/A   Clear
11:54 PM 54.0 °F - 50.0 °F 86% 30.06 in 10.0 mi East 5.8 mph - N/A   Clear